English version Home page |
Updated on September 27, 2024 |
|
軌道要素Epoch 2024 Mar. 31.0 TT = JDT 2460400.5 T 2025 Jan. 25.38190 TT Rudenko q 3.5483669 (2000.0) P Q z +0.0014134 Peri. 302.84854 -0.90308750 +0.09896593 +/-0.0000068 Node 246.00161 -0.02301168 -0.98283881 e 0.9949847 Incl. 27.22207 -0.42883963 -0.15567154 >From 489 observations 2023 Sept. 9-2024 June 17, mean residual 0".4.
|
星図
|
光度変化m1 = 7.7 + 5 logΔ + 10.0 log r
|
軌道要素はM.P.E.C. 2024-M41に掲載されたものです。
|